LUCKY-7

Last updated on Sat Apr 13 2024 01:03:33 GMT+0100 (British Summer Time)

1 44406U 19038W 24103.53991508 .00030847 00000+0 81453-3 0 9994 2 44406 97.7049 98.1340 0012418 335.3348 24.7301 15.38324991264257
UTC large
Height (km)
Speed (km/s)
/
Latitude / Longitude
Inclination (degrees)
Orbital Period (minutes)
Azimuth
Elevation
Range (km)
Doppler Factor

Next 0 passes for location: London (51.5072 / 0.1276)

Sorry there are no passes over London.